Regional Weather Roundup
Issued by NWS

Home | Current Version | Previous Version | Text Only | Print | Product List | Glossary Off
Versions: 1 2 3 4 5 6 7 8 9 10 11 12 13 14 15 16 17 18 19 20 21 22 23 24 25 26 27 28 29 30 31 32 33 34 35 36 37 38 39 40 41 42 43 44 45 46 47 48 49 50

000
ASUS44 KMEG 300610
RWRTN
TENNESSEE HOURLY STATE WEATHER ROUNDUP
NATIONAL WEATHER SERVICE MEMPHIS TN
100 AM CDT SAT AUG 30 2014

TNZ002-004-019-021-049-052-054-088>092-300700-
WEST TENNESSEE

CITY           SKY/WX    TMP DP  RH WIND       PRES   REMARKS
MEMPHIS INTL   MOCLDY    81  70  69 SE3       30.00F
NWS MEMPHIS      N/A     77 N/A N/A MISG        N/A
JACKSON        FAIR      77  64  64 SE3       30.02S
DYERSBURG      MOCLDY    73  64  73 CALM      30.02S
UNION CITY     CLEAR     73  70  88 E3        30.00F
PARIS          PTCLDY    73  64  73 CALM      30.03S
HUNTINGDON     FAIR      73  66  78 CALM      30.03R
LEXINGTON      PTCLDY    70  66  88 CALM      30.03S
SAVANNAH       PTCLDY    72  70  94 S5        30.04S
$$

TNZ008-025-027-028-033-062-065-066-300700-
NORTH MIDDLE TENNESSEE

CITY           SKY/WX    TMP DP  RH WIND       PRES   REMARKS
NASHVILLE      FAIR      72  65  78 S3        30.07R
DICKSON        FAIR      75  63  64 S5        30.06S
PORTLAND       FAIR      70  63  78 S6        30.06R
CLARKSVILLE    FAIR      73  65  75 S3        30.04R
LEBANON        FAIR      70  64  81 CALM      30.06R
SMYRNA         FAIR      70  66  86 CALM      30.08R
COOKEVILLE     CLEAR     64  63  94 CALM      30.10R
LIVINGSTON     FAIR      74  57  55 SW3       30.12S
GALLATIN       FAIR      71  67  87 CALM      30.08R
CROSSVILLE     FAIR      69  62  78 CALM      30.16S
$$

TNZ061-075-076-078-094-096-097-300700-
SOUTH MIDDLE TENNESSEE

CITY           SKY/WX    TMP DP  RH WIND       PRES   REMARKS
LEWISBURG      FAIR      69  65  87 CALM      30.07R
FAYETTEVILLE   PTCLDY    73  63  68 S5        30.09S
TULLAHOMA      CLEAR     66  63  88 CALM      30.11S
WINCHESTER     CLEAR     70  64  83 CALM      30.11R
MCMINNVILLE    CLEAR     66  66 100 CALM      30.11R
COLUMBIA       MOCLDY    70  70 100 CALM      30.06R
SHELBYVILLE    PTCLDY    72  66  83 SE3       30.09S
$$

TNZ017-018-042-046-047-300700-
NORTHEAST TENNESSEE

CITY           SKY/WX    TMP DP  RH WIND       PRES   REMARKS
TRI CITIES     FAIR      69  66  90 CALM      30.18S
ELIZABETHTON   CLEAR     70  64  83 CALM      30.20R
$$

TNZ012-013-036-069-073-074-300700-
CENTRAL EAST TENNESSEE

CITY           SKY/WX    TMP DP  RH WIND       PRES   REMARKS
KNOXVILLE      FAIR      72  65  78 NE3       30.10S
OAK RIDGE      FAIR      72  68  87 CALM      30.13S
GATLINBURG     CLEAR     68  63  83 CALM      30.12S
MORRISTOWN     CLEAR     73  66  78 VRB3      30.14F
$$

TNZ083-085-099-300700-
SOUTHEAST TENNESSEE

CITY           SKY/WX    TMP DP  RH WIND       PRES   REMARKS
CHATTANOOGA    FAIR      71  65  81 NW3       30.10R
$$

SKY/WX REPORTED AS FAIR MEANS FEW OR NO CLOUDS BELOW
12 THOUSAND FEET.




USA.gov is the U.S. government's official web portal to all federal, state and local government web resources and services.